Weather History for Fort Polk, LA

Change the Weather History Date:

Friday, August 23, 2013

  Actual Average (KPOE) Record (KPOE)
Temperature  
Mean Temperature 84 °F -  
Max Temperature 97 °F 89 °F 99 °F (2011)
Min Temperature 71 °F 71 °F 68 °F (1997)
Cooling Degree Days 19    
Growing Degree Days 34 (Base 50)    
Moisture  
Dew Point 70 °F    
Average Humidity 68    
Maximum Humidity 94    
Minimum Humidity 36    
Precipitation  
Precipitation 0.00 in - - ()
Sea Level Pressure  
Sea Level Pressure 29.97 in    
Wind  
Wind Speed 2 mph (ENE)    
Max Wind Speed 12 mph    
Max Gust Speed 18 mph    
Visibility 9 miles    
Events      
Averages and records for this station are not official NWS values.
T = Trace of Precipitation, MM = Missing Value Source: NWS Daily Summary

Daily Weather History Graph

Daily Weather History Graph

Search for Another Location

Airport:

Trip Planner

Search our weather history database for the weather conditions in past years. The results will help you decide how hot, cold, wet, or windy it might be!

Date:

Astronomy

Aug. 23, 2013 Rise Set
Actual Time 6:43 AM CDT 7:47 PM CDT
Civil Twilight 6:18 AM CDT 8:12 PM CDT
Nautical Twilight 5:48 AM CDT 8:41 PM CDT
Astronomical Twilight 5:18 AM CDT 9:12 PM CDT
Moon 9:23 PM CDT (8/23) 9:24 AM CDT (8/23)
Length of Visible Light 13h 53m
Length of Day
13h 03m
Waning Gibbous, 91% of the Moon is Illuminated
Aug 23
Waning Gibbous
Aug 28
Last Quarter
Sep 5
New
Sep 12
First Quarter
Sep 19
Full

Hourly Weather History & Observations

Time (CDT) Temp. Heat Index Dew Point Humidity Pressure Visibility Wind Dir Wind Speed Gust Speed Precip Events Conditions
12:56 AM 75.0 °F - 70.0 °F 84% 30.00 in 10.0 mi Calm Calm - N/A   Clear
1:56 AM 73.9 °F - 70.0 °F 87% 29.99 in 10.0 mi Calm Calm - N/A   Clear
2:56 AM 73.0 °F - 70.0 °F 90% 29.99 in 10.0 mi Calm Calm - N/A   Clear
3:56 AM 72.0 °F - 70.0 °F 93% 29.98 in 10.0 mi Calm Calm - N/A   Clear
4:56 AM 72.0 °F - 69.1 °F 91% 29.97 in 10.0 mi Calm Calm - N/A   Clear
5:56 AM 72.0 °F - 69.1 °F 91% 29.99 in 10.0 mi Calm Calm - N/A   Clear
6:47 AM 71.6 °F - 69.8 °F 94% 30.00 in 1.8 mi Calm Calm - N/A   Clear
6:56 AM 72.0 °F - 69.1 °F 91% 30.00 in 2.5 mi Calm Calm - N/A   Clear
7:03 AM 71.6 °F - 69.8 °F 94% 30.01 in 10.0 mi Calm Calm - N/A   Clear
7:56 AM 77.0 °F - 72.0 °F 84% 30.01 in 4.0 mi Calm Calm - N/A   Haze
8:56 AM 84.0 °F 90.2 °F 73.0 °F 69% 30.01 in 10.0 mi Variable 3.5 mph - N/A   Clear
9:56 AM 89.1 °F 96.0 °F 72.0 °F 57% 30.00 in 10.0 mi Variable 3.5 mph - N/A   Clear
10:56 AM 91.0 °F 96.6 °F 70.0 °F 50% 30.01 in 10.0 mi Variable 5.8 mph - N/A   Partly Cloudy
11:56 AM 93.0 °F 99.0 °F 70.0 °F 47% 30.00 in 10.0 mi Variable 6.9 mph - N/A   Scattered Clouds
12:56 PM 91.9 °F 96.9 °F 69.1 °F 47% 29.98 in 10.0 mi NNE 6.9 mph - N/A   Partly Cloudy
1:56 PM 95.0 °F 99.5 °F 68.0 °F 41% 29.95 in 10.0 mi East 8.1 mph 18.4 mph N/A   Partly Cloudy
2:56 PM 97.0 °F 100.4 °F 66.0 °F 36% 29.93 in 10.0 mi Variable 6.9 mph - N/A   Partly Cloudy
3:56 PM 97.0 °F 101.0 °F 66.9 °F 37% 29.91 in 10.0 mi East 4.6 mph - N/A   Partly Cloudy
4:56 PM 91.9 °F 96.9 °F 69.1 °F 47% 29.91 in 10.0 mi NNE 11.5 mph 17.3 mph N/A   Clear
5:56 PM 91.9 °F 96.9 °F 69.1 °F 47% 29.91 in 10.0 mi ENE 5.8 mph - N/A   Scattered Clouds
6:56 PM 91.0 °F 96.6 °F 70.0 °F 50% 29.91 in 10.0 mi Variable 4.6 mph - N/A   Clear
7:56 PM 87.1 °F 92.0 °F 70.0 °F 57% 29.92 in 10.0 mi Calm Calm - N/A   Clear
8:56 PM 84.0 °F 89.0 °F 71.1 °F 65% 29.93 in 10.0 mi Calm Calm - N/A   Clear
9:56 PM 82.9 °F 88.0 °F 72.0 °F 69% 29.96 in 10.0 mi Variable 3.5 mph - N/A   Clear
10:56 PM 81.0 °F 85.2 °F 72.0 °F 74% 29.97 in 10.0 mi Calm Calm - N/A   Clear
11:56 PM 80.1 °F 84.2 °F 73.0 °F 79% 29.98 in 10.0 mi Calm Calm - N/A   Clear